FW5428 Weather Reports


Display with metric or nautical units.
time (UTC)temp
F
wind
direction
speed
MPH
gust
MPH
rain 1hr
in
rain 24hr
in
rain mn
in
humidity
%
barometer
mb
20260905102559 43 270 3.0 5.0 0.00 0.00 0.00 85 1020.6
20260905101539 46 270 2.0 7.0 0.00 0.00 0.00 85 1020.6
20260905101028 47 315 2.0 7.0 0.00 0.00 0.00 84 1020.6
20260905100518 50 270 4.0 16.0 0.00 0.00 0.00 81 1020.4
20260905100008 52 270 3.0 16.0 0.00 0.00 0.00 80 1020.2
20260905095458 52 180 12.0 16.0 0.00 0.00 0.00 75 1020.3
20260905094949 53 180 11.0 17.0 0.00 0.00 0.00 78 1020.2
20260905093928 53 180 13.0 21.0 0.00 0.00 0.00 76 1019.9
20260905093417 53 135 16.0 23.0 0.00 0.00 0.00 75 1019.9
20260905092908 53 180 17.0 23.0 0.00 0.00 0.00 75 1019.6
20260905091848 52 180 13.0 19.0 0.00 0.00 0.00 77 1019.3
20260905091338 52 180 15.0 20.0 0.00 0.00 0.00 78 1019.3
20260905090827 52 180 15.0 20.0 0.00 0.00 0.00 77 1019.5
20260905090318 53 180 17.0 20.0 0.00 0.00 0.00 75 1019.1
20260905085807 53 180 17.0 22.0 0.00 0.00 0.00 76 1019.3
20260905083727 53 180 20.0 24.0 0.00 0.00 0.00 75 1018.8
20260905083217 53 180 20.0 25.0 0.00 0.00 0.00 74 1018.7
20260905082706 53 180 18.0 25.0 0.00 0.00 0.00 76 1018.7
20260905082156 53 180 20.0 24.0 0.00 0.00 0.00 75 1018.5
20260905081136 53 180 17.0 24.0 0.00 0.00 0.00 77 1018.3
20260905080625 53 180 18.0 26.0 0.00 0.00 0.00 75 1018.1
20260905080116 54 180 21.0 26.0 0.00 0.00 0.00 75 1017.9
20260905075605 54 180 21.0 28.0 0.00 0.00 0.00 76 1017.8
20260905075055 54 180 22.0 30.0 0.00 0.00 0.00 74 1017.8
20260905074546 54 180 23.0 30.0 0.00 0.00 0.00 72 1017.6
20260905074035 53 180 23.0 29.0 0.00 0.00 0.00 73 1017.8
20260905073525 52 180 24.0 28.0 0.00 0.00 0.00 75 1017.4
20260905073015 52 180 13.0 21.0 0.00 0.00 0.00 81 1017.5
20260905072505 51 180 15.0 23.0 0.00 0.00 0.00 79 1017.6
20260905071955 51 180 15.0 23.0 0.00 0.00 0.00 78 1017.5
20260905071445 51 180 15.0 22.0 0.00 0.00 0.00 78 1017.6
20260905070935 51 180 13.0 23.0 0.00 0.00 0.00 77 1017.6
20260905070425 51 180 17.0 23.0 0.00 0.00 0.00 75 1017.7
20260905065915 52 180 17.0 23.0 0.00 0.00 0.00 75 1017.6
20260905065404 52 225 16.0 24.0 0.00 0.00 0.00 75 1017.5
20260905064854 52 225 17.0 24.0 0.00 0.00 0.00 74 1017.2
20260905064344 53 180 15.0 27.0 0.00 0.00 0.00 76 1017.2
20260905063834 53 225 18.0 27.0 0.00 0.00 0.00 72 1017.2
20260905063324 53 225 22.0 27.0 0.00 0.00 0.00 71 1016.9
20260905062306 52 225 17.0 24.0 0.00 0.00 0.00 72 1017.0
20260905061754 52 270 15.0 26.0 0.00 0.00 0.00 75 1017.4
20260905061243 52 225 20.0 26.0 0.00 0.00 0.00 74 1017.4
20260905060735 52 225 20.0 0.0 0.00 0.00 0.00 74 1017.3
20260905060146 53 225 15.0 0.0 0.00 0.00 0.00 73 1017.3
20260905055836 53 225 17.0 24.0 0.00 0.00 0.00 73 1017.2
20260905055327 52 225 19.0 23.0 0.00 0.00 0.00 74 1017.4
20260905054816 52 180 17.0 21.0 0.00 0.00 0.00 73 1017.2
20260905053755 49 225 16.0 20.0 0.00 0.00 0.00 75 1017.6
20260905053245 48 270 12.0 16.0 0.00 0.00 0.00 79 1017.5
20260905052736 48 270 6.0 15.0 0.00 0.00 0.00 80 1017.6
20260905051205 47 270 5.0 13.0 0.00 0.00 0.00 77 1017.6
20260905050655 47 270 8.0 13.0 0.00 0.00 0.00 79 1017.6
20260905050145 47 270 7.0 10.0 0.00 0.00 0.00 80 1017.6
20260905045635 47 270 4.0 9.0 0.00 0.00 0.00 80 1017.5
20260905045124 47 270 4.0 12.0 0.00 0.00 0.00 79 1017.6
20260905044621 46 270 4.0 15.0 0.00 0.00 0.00 79 1017.7
20260905044105 46 270 7.0 15.0 0.00 0.00 0.00 81 1017.6
20260905043554 46 270 5.0 10.0 0.00 0.00 0.00 83 1017.5
20260905042534 47 0 5.0 9.0 0.00 0.00 0.00 81 1017.0
20260905042024 47 180 4.0 8.0 0.00 0.00 0.00 80 1017.2
20260905041524 47 0 4.0 8.0 0.00 0.00 0.00 80 1017.2
20260905041003 47 315 4.0 8.0 0.00 0.00 0.00 81 1017.1
20260905040453 47 0 4.0 9.0 0.00 0.00 0.00 80 1017.1
20260905035433 48 0 4.0 11.0 0.00 0.00 0.00 78 1017.0
20260905034923 48 270 4.0 12.0 0.00 0.00 0.00 78 1016.9
20260905034414 48 0 4.0 12.0 0.00 0.00 0.00 77 1017.1
20260905033903 48 0 8.0 11.0 0.00 0.00 0.00 77 1017.0
20260905033354 48 0 7.0 11.0 0.00 0.00 0.00 77 1017.2
20260905032843 48 0 5.0 11.0 0.00 0.00 0.00 77 1017.2
20260905032332 49 0 5.0 11.0 0.00 0.00 0.00 77 1016.9
20260905031822 49 0 7.0 11.0 0.00 0.00 0.00 76 1017.0
20260905030803 49 0 6.0 10.0 0.00 0.00 0.00 75 1017.0
20260905030252 50 0 5.0 9.0 0.00 0.00 0.00 75 1016.7
20260905025742 51 0 7.0 10.0 0.00 0.00 0.00 73 1016.9
20260905025232 51 315 5.0 10.0 0.00 0.00 0.00 72 1016.8
20260905024722 52 0 6.0 10.0 0.00 0.00 0.00 71 1016.8
20260905024215 52 0 5.0 8.0 0.00 0.00 0.00 69 1016.7
20260905023701 53 0 4.0 9.0 0.00 0.00 0.00 67 1016.6
20260905023151 53 0 4.0 9.0 0.00 0.00 0.00 65 1016.6
20260905022641 53 0 4.0 9.0 0.00 0.00 0.00 65 1016.5
20260905022135 53 45 5.0 8.0 0.00 0.00 0.00 67 1016.5
20260905021621 52 0 4.0 10.0 0.00 0.00 0.00 64 1016.5
20260905021113 52 0 4.0 10.0 0.00 0.00 0.00 67 1016.6
20260905020601 51 0 4.0 8.0 0.00 0.00 0.00 68 1016.7
20260905020051 52 0 3.0 6.0 0.00 0.00 0.00 71 1016.7
20260905015541 53 0 4.0 6.0 0.00 0.00 0.00 71 1016.5
20260905015031 53 0 4.0 5.0 0.00 0.00 0.00 68 1016.5
20260905014520 54 0 3.0 6.0 0.00 0.00 0.00 67 1016.7
20260905014010 54 0 4.0 6.0 0.00 0.00 0.00 63 1016.5
20260905013500 54 0 4.0 8.0 0.00 0.00 0.00 63 1016.5
20260905012950 53 0 4.0 8.0 0.00 0.00 0.00 64 1016.5
20260905012440 53 0 3.0 6.0 0.00 0.00 0.00 68 1016.4
20260905011929 53 0 3.0 6.0 0.00 0.00 0.00 67 1016.5
20260905011420 53 0 3.0 5.0 0.00 0.00 0.00 68 1016.5
20260905010910 53 0 3.0 4.0 0.00 0.00 0.00 68 1016.3
20260905010359 53 0 3.0 4.0 0.00 0.00 0.00 67 1016.3
20260905005849 54 0 2.0 5.0 0.00 0.00 0.00 65 1016.2
20260905005339 54 45 3.0 5.0 0.00 0.00 0.00 64 1016.1
20260905004829 54 0 3.0 4.0 0.00 0.00 0.00 66 1016.4
20260905004319 54 0 2.0 4.0 0.00 0.00 0.00 66 1016.3
20260905003259 55 0 3.0 4.0 0.00 0.00 0.00 67 1016.2
20260905002751 55 0 2.0 4.0 0.00 0.00 0.00 63 1016.3
20260905002239 56 0 2.0 4.0 0.00 0.00 0.00 63 1016.2
20260905001728 56 0 3.0 4.0 0.00 0.00 0.00 62 1016.2
20260905001219 56 0 3.0 4.0 0.00 0.00 0.00 62 1016.2
20260905000709 56 0 3.0 4.0 0.00 0.00 0.00 62 1016.2
20260905000159 56 0 3.0 4.0 0.00 0.00 0.00 61 1016.3
20260904235648 56 0 3.0 4.0 0.00 0.00 0.00 61 1016.4
20260904235138 56 0 2.0 4.0 0.00 0.00 0.00 62 1016.3
20260904234628 56 0 2.0 4.0 0.00 0.00 0.00 63 1016.2
20260904234117 57 0 2.0 4.0 0.00 0.00 0.00 62 1016.2
20260904233607 57 0 2.0 3.0 0.00 0.00 0.00 60 1016.3
20260904233058 57 0 2.0 3.0 0.00 0.00 0.00 59 1016.2
20260904232548 57 0 2.0 4.0 0.00 0.00 0.00 60 1016.1
20260904232037 57 0 2.0 4.0 0.00 0.00 0.00 60 1016.2
20260904231528 58 0 2.0 4.0 0.00 0.00 0.00 60 1016.0
20260904231017 58 0 2.0 3.0 0.00 0.00 0.00 59 1016.0
20260904230507 58 0 2.0 3.0 0.00 0.00 0.00 59 1016.1
20260904225957 58 270 1.0 2.0 0.00 0.00 0.00 59 1016.4
20260904225459 58 315 1.0 3.0 0.00 0.00 0.00 59 1016.0
20260904224936 58 270 2.0 3.0 0.00 0.00 0.00 59 1016.0
20260904224427 58 315 2.0 3.0 0.00 0.00 0.00 60 1015.8
20260904223917 58 270 2.0 3.0 0.00 0.00 0.00 59 1016.0
20260904223406 58 315 2.0 3.0 0.00 0.00 0.00 60 1015.8
20260904222929 58 315 2.0 3.0 0.00 0.00 0.00 61 1016.1
20260904221836 59 315 2.0 3.0 0.00 0.00 0.00 61 1016.1
20260904221326 59 270 2.0 3.0 0.00 0.00 0.00 60 1016.0
20260904215755 59 270 2.0 4.0 0.00 0.00 0.00 59 1015.8
20260904215245 60 270 3.0 4.0 0.00 0.00 0.00 60 1016.0
20260904214225 60 270 3.0 5.0 0.00 0.00 0.00 61 1015.9
20260904213715 61 270 3.0 7.0 0.00 0.00 0.00 59 1015.8
20260904213205 61 270 3.0 7.0 0.00 0.00 0.00 58 1016.0
20260904212655 62 270 3.0 8.0 0.00 0.00 0.00 59 1016.1
20260904212145 62 270 2.0 12.0 0.00 0.00 0.00 57 1015.8
20260904211635 62 270 4.0 14.0 0.00 0.00 0.00 59 1015.8
20260904211124 62 270 9.0 14.0 0.00 0.00 0.00 56 1015.8
20260904210615 62 225 7.0 13.0 0.00 0.00 0.00 55 1015.8
20260904210105 62 270 8.0 17.0 0.00 0.00 0.00 55 1015.8
20260904205044 62 270 11.0 15.0 0.00 0.00 0.00 54 1016.0
20260904204534 62 225 10.0 13.0 0.00 0.00 0.00 54 1015.7
20260904204128 62 270 8.0 15.0 0.00 0.00 0.00 52 1015.8
20260904203513 63 225 9.0 15.0 0.00 0.00 0.00 56 1015.6
20260904203012 63 225 10.0 15.0 0.00 0.00 0.00 54 1015.9
20260904201433 63 180 11.0 16.0 0.00 0.00 0.00 54 1015.7
20260904200422 62 270 10.0 17.0 0.00 0.00 0.00 50 1015.6
20260904195904 62 225 12.0 18.0 0.00 0.00 0.00 51 1015.5
20260904194843 63 225 16.0 19.0 0.00 0.00 0.00 53 1015.5
20260904194333 63 225 11.0 17.0 0.00 0.00 0.00 52 1015.6
20260904193822 63 180 13.0 15.0 0.00 0.00 0.00 52 1015.3
20260904192802 62 270 11.0 20.0 0.00 0.00 0.00 51 1015.3
20260904192252 62 225 11.0 20.0 0.00 0.00 0.00 54 1015.3
20260904191742 62 225 9.0 19.0 0.00 0.00 0.00 54 1015.5
20260904190721 62 225 10.0 16.0 0.00 0.00 0.00 55 1015.4
20260904190212 62 270 12.0 16.0 0.00 0.00 0.00 56 1015.5
20260904185702 62 225 9.0 17.0 0.00 0.00 0.00 55 1015.5
20260904185151 62 225 8.0 17.0 0.00 0.00 0.00 58 1015.7
20260904184642 62 225 14.0 18.0 0.00 0.00 0.00 56 1015.8
20260904183621 62 225 14.0 23.0 0.00 0.00 0.00 58 1015.5
20260904183111 62 180 12.0 17.0 0.00 0.00 0.00 56 1015.7
20260904182601 62 180 8.0 13.0 0.00 0.00 0.00 58 1015.5
20260904182050 62 180 6.0 15.0 0.00 0.00 0.00 56 1015.5
20260904181541 62 225 6.0 15.0 0.00 0.00 0.00 58 1015.5
20260904181030 62 225 8.0 17.0 0.00 0.00 0.00 57 1015.7
20260904180520 62 225 11.0 17.0 0.00 0.00 0.00 59 1015.7
20260904180012 62 225 11.0 17.0 0.00 0.00 0.00 56 1015.7
20260904175500 62 180 9.0 17.0 0.00 0.00 0.00 58 1015.5
20260904174950 62 180 11.0 17.0 0.00 0.00 0.00 60 1015.5
20260904173929 61 135 9.0 16.0 0.00 0.00 0.00 59 1015.7
20260904173419 61 180 4.0 9.0 0.00 0.00 0.00 64 1015.9
20260904172910 60 180 2.0 9.0 0.00 0.00 0.00 63 1015.9
20260904172400 60 180 5.0 9.0 0.00 0.00 0.00 63 1016.0
20260904171849 60 180 4.0 9.0 0.00 0.00 0.00 62 1016.0
20260904171343 60 180 4.0 8.0 0.00 0.00 0.00 64 1016.4
20260904170829 60 180 6.0 8.0 0.00 0.00 0.00 63 1016.4
20260904170318 60 180 3.0 9.0 0.00 0.00 0.00 64 1016.4
20260904165809 60 135 5.0 9.0 0.00 0.00 0.00 66 1016.5
20260904165259 60 90 4.0 11.0 0.00 0.00 0.00 66 1016.8
20260904164748 61 135 7.0 11.0 0.00 0.00 0.00 66 1016.8
20260904164239 60 90 5.0 8.0 0.00 0.00 0.00 66 1016.6
20260904163728 60 180 2.0 10.0 0.00 0.00 0.00 64 1016.8
20260904163218 59 180 4.0 10.0 0.00 0.00 0.00 65 1016.9
20260904161648 59 90 3.0 7.0 0.00 0.00 0.00 72 1017.1
20260904161138 59 90 3.0 8.0 0.00 0.00 0.00 71 1017.4
20260904160628 59 90 5.0 8.0 0.00 0.00 0.00 73 1017.4
20260904160118 59 180 4.0 7.0 0.00 0.00 0.00 72 1017.4
20260904155608 59 135 3.0 7.0 0.00 0.00 0.00 72 1017.4
20260904155057 59 180 5.0 7.0 0.00 0.00 0.00 72 1017.5
20260904154547 59 90 4.0 7.0 0.00 0.00 0.00 72 1017.6
20260904154037 59 180 3.0 8.0 0.00 0.00 0.00 72 1017.8
20260904153527 58 135 4.0 8.0 0.00 0.00 0.00 70 1017.9
20260904153018 58 180 4.0 8.0 0.00 0.00 0.00 70 1017.8
20260904152506 58 135 5.0 8.0 0.00 0.00 0.00 73 1017.6
20260904151957 58 180 4.0 8.0 0.00 0.00 0.00 73 1018.2
20260904151446 58 90 4.0 8.0 0.00 0.00 0.00 72 1018.0
20260904150937 58 180 4.0 5.0 0.00 0.00 0.00 71 1018.1
20260904150428 58 180 2.0 4.0 0.00 0.00 0.00 73 1018.2
20260904145916 57 135 2.0 4.0 0.00 0.00 0.00 73 1018.1
20260904145406 56 180 2.0 5.0 0.00 0.00 0.00 75 1018.3
20260904144856 56 180 3.0 5.0 0.00 0.00 0.00 76 1018.4
20260904144346 56 180 3.0 5.0 0.00 0.00 0.00 81 1018.5
20260904143326 55 180 4.0 5.0 0.00 0.00 0.00 83 1018.5
20260904142815 55 180 3.0 6.0 0.00 0.00 0.00 83 1018.4
20260904142306 55 180 4.0 6.0 0.00 0.00 0.00 84 1018.6
20260904141756 55 180 4.0 6.0 0.00 0.00 0.00 83 1018.3
20260904141245 55 180 5.0 7.0 0.00 0.00 0.00 83 1018.2
20260904140735 55 180 4.0 7.0 0.00 0.00 0.00 84 1018.2
20260904140225 55 180 5.0 7.0 0.00 0.00 0.00 84 1018.3
20260904135205 54 135 3.0 5.0 0.00 0.00 0.00 85 1018.3
20260904112212 47 270 2.0 0.0 0.00 0.00 0.00 86 1017.6
20260904111840 46 270 2.0 4.0 0.00 0.00 0.00 86 1017.8
20260904111330 46 270 2.0 4.0 0.00 0.00 0.00 86 1017.7
20260904110820 45 0 2.0 4.0 0.00 0.00 0.00 87 1017.3
20260904110310 44 270 2.0 5.0 0.00 0.00 0.00 88 1017.6
20260904104740 43 270 4.0 9.0 0.00 0.00 0.00 89 1017.4